Simultaneous Nadir Overpasses (SNOs) Predictions

Prediction of SNOs between METOP-A and NOAA-19 Satellite Orbit:

Table of predicted SNOs for the next 14.0 days since TLE Epoch: 6/19/2015
Index Date (METOP-A) Time (METOP-A) Lat,Lon (METOP-A) SZA (METOP-A ) Date (NOAA-19) Time (NOAA-19) Lat,Lon (NOAA-19) SZA (NOAA-19 ) Distance(km) Time Diff (sec)
1 06/26/2015 23:55:48 -75.24, -1.38 128.15 06/26/2015 23:54:35 -75.27, -2.30 128.11 26.24 73
2 06/27/2015 00:46:31 75.09, 165.52 51.71 06/27/2015 00:45:38 75.09, 165.48 51.71 1.31 53
3 06/27/2015 01:37:13 -75.08, -27.20 128.31 06/27/2015 01:36:33 -75.05, -27.15 128.33 3.15 40
4 06/27/2015 02:27:53 75.07, 140.11 51.69 06/27/2015 02:27:40 75.06, 140.06 51.68 2.02 13
5 06/27/2015 03:18:35 -75.06, -52.61 128.33 06/27/2015 03:18:36 -75.07, -52.71 128.31 3.45 1
6
